Tracking 19795 objects as of 20-Jul-2019
HD Live streaming from Space Station
objects crossing your sky now

METEOR 2-17 DEB

Track METEOR 2-17 DEB now!
10-day predictions


NORAD ID: 38285
Int'l Code: 1988-005AN
Perigee: 919.1 km
Apogee: 948.5 km
Inclination: 82.5 °
Period: 103.6 minutes
Semi major axis: 7304 km
RCS: 0.0154 m2 (small)
Launch date: January 30, 1988
Source: Commonwealth of Independent States (former USSR) (CIS)
Launch site: PLESETSK MISSILE AND SPACE COMPLEX (PKMTR)

Note: This is SATELLITE DEBRIS
aabbcc
Your satellite tracking list
Your tracking list is empty




NASA's NSSDC Master Catalog

Two Line Element Set (TLE):
1 38285U 88005AN  18025.19211162 +.00001675 +00000-0 +13323-2 0  9999
2 38285 082.5450 239.5176 0020158 013.0974 347.0709 13.90566954537154
Source of the keplerian elements: AFSPC